Flag for Germany Past Weather in Rheinfelden (Baden), Baden-Württemberg, Germany — Yesterday and Last 2 Weeks

Now
64 °F

Partly cloudy.


Feels Like: 64 °F
Forecast: 48 / 72 °F
Wind: 5 mph from West

Location: Bale-Mulhouse

Current Time: Jul 2, 2016 at 6:03:43 AM

Latest Report: Jul 2, 2016 at 5:30 AM


Visibility: N/A

Pressure: 30.01 "Hg

Humidity: 88%

Dew Point: 61 °F

Location of Rheinfelden (Baden)Location

Past Weather in Rheinfelden (Baden) — Graph

°F

Rheinfelden (Baden) Temperature Yesterday

Maximum temperature yesterday: 81 °F (at 5:00 PM)
Minimum temperature yesterday: 59 °F (at 4:30 AM)
Average temperature yesterday: 70 °F

High & Low Weather Summary for the Past Weeks

 TemperatureHumidityPressure
High93 °F (Jun 23, 5:00 PM)100% (Jun 20, 3:30 AM)30.27 "Hg (Jun 20, 3:30 AM)
Low46 °F (Jun 20, 5:30 AM)38% (Jun 23, 2:30 PM)29.74 "Hg (Jun 17, 5:00 AM)
Average67 °F75%30.09 "Hg
* Reported Jun 17 5:00 AM — Jul 2 5:00 AM, Rheinfelden (Baden), Weather by CustomWeather, © 2016

Note: Actual official high and low records may vary slightly from our data, if they occured in-between our weather recording intervals... More about our weather records

Advertising

Rheinfelden (Baden) Weather History for the Previous 24 Hours

Scroll right to see more
 ConditionsComfort  
Time TempWeatherWind HumidityBarometerVisibility
5:00 AM
Sat, Jul 2
64 °FSprinkles. Partly cloudy.5 mph88%30.01 "HgN/A
4:30 AM64 °FSprinkles. Passing clouds.9 mph88%30.01 "HgN/A
4:00 AM64 °FMostly cloudy.9 mph88%30.01 "HgN/A
3:30 AM68 °FPassing clouds.14 mph73%30.01 "HgN/A
3:00 AM68 °FMild.6 mph73%30.01 "HgN/A
2:30 AM66 °FPassing clouds.6 mph83%29.98 "HgN/A
2:00 AM66 °FPassing clouds.5 mph83%29.98 "HgN/A
1:30 AM66 °FPassing clouds.3 mph83%29.98 "HgN/A
1:00 AM66 °FClear.1 mph83%29.98 "Hg10 mi
12:30 AM66 °FClear.5 mph83%29.98 "Hg10 mi
12:00 AM66 °FClear.2 mph83%30.01 "Hg10 mi
11:30 PM
Fri, Jul 1
66 °FClear.2 mph83%30.01 "Hg10 mi
11:00 PM66 °FClear.3 mph83%30.01 "Hg10 mi
10:30 PM68 °FClear.5 mph78%30.01 "Hg10 mi
10:00 PM70 °FSunny.2 mph73%30.01 "Hg10 mi
9:30 PM73 °FSunny.3 mph65%30.01 "Hg10 mi
9:00 PM75 °FScattered clouds.3 mph65%30.01 "HgN/A
8:30 PM77 °FPassing clouds.7 mph57%30.01 "HgN/A
8:00 PM79 °FPartly sunny.7 mph54%29.98 "HgN/A
7:30 PM81 °FPartly sunny.2 mph51%29.98 "HgN/A
7:00 PM79 °FPartly sunny.2 mph54%30.01 "HgN/A
6:30 PM81 °FPartly sunny.3 mph48%30.01 "HgN/A
6:00 PM81 °FBroken clouds.3 mph51%30.01 "HgN/A
5:30 PM81 °FScattered clouds.1 mph51%30.01 "HgN/A
5:00 PM81 °FScattered clouds.5 mph48%30.01 "HgN/A
4:30 PM79 °FScattered clouds.6 mph51%30.01 "HgN/A
4:00 PM79 °FBroken clouds.3 mph51%30.04 "HgN/A
3:30 PM77 °FBroken clouds.5 mph54%30.04 "HgN/A
3:00 PM77 °FScattered clouds.5 mph54%30.04 "HgN/A
2:30 PM77 °FBroken clouds.6 mph57%30.04 "HgN/A
2:00 PM77 °FBroken clouds.6 mph54%30.07 "HgN/A
1:30 PM77 °FBroken clouds.8 mph54%30.07 "HgN/A
1:00 PM77 °FScattered clouds.7 mph51%30.07 "HgN/A
12:30 PM75 °FScattered clouds.7 mph57%30.07 "HgN/A
12:00 PM75 °FScattered clouds.8 mph57%30.09 "HgN/A
11:30 AM73 °FScattered clouds.6 mph61%30.09 "HgN/A
11:00 AM73 °FBroken clouds.7 mph61%30.09 "HgN/A
10:30 AM72 °FBroken clouds.8 mph61%30.09 "HgN/A
10:00 AM72 °FPartly sunny.3 mph65%30.09 "HgN/A
9:30 AM70 °FPartly sunny.5 mph69%30.09 "HgN/A
9:00 AM68 °FBroken clouds.2 mph73%30.09 "HgN/A
8:30 AM66 °FPartly sunny.3 mph83%30.09 "HgN/A
8:00 AM66 °FBroken clouds.2 mph83%30.09 "HgN/A
7:30 AM63 °FBroken clouds.No wind94%30.09 "HgN/A
7:00 AM61 °FBroken clouds.1 mph94%30.09 "HgN/A
6:30 AM61 °FPassing clouds.3 mph94%30.07 "HgN/A
6:00 AM61 °FPassing clouds.2 mph94%30.07 "HgN/A
Weather by CustomWeather, © 2016

See weather overviewHow to use our weather pages